This is the latest recevied weather packets stored in our database for station/object N8VDS-10. If no packets are shown the sender has not sent any weather packets the latest 10 day(s).
| Time | Temp. | Humidity | Pressure | Rain* | Wind** | Luminosity | Snow |
|---|---|---|---|---|---|---|---|
| 1777808986 | 6.67° C | 54% | 1016.3 hPa | 0 mm | - | 85 W/m² | - |
| 1777808683 | 6.11° C | 54% | 1016.2 hPa | 0 mm | - | 81 W/m² | - |
| 1777808379 | 6.11° C | 54% | 1016.2 hPa | 0 mm | - | 53 W/m² | - |
| 1777808078 | 5.56° C | 55% | 1016.2 hPa | 0 mm | - | 49 W/m² | - |
| 1777807776 | 5.56° C | 55% | 1016.3 hPa | 0 mm | - | 47 W/m² | - |
| 1777807473 | 5.56° C | 55% | 1016.2 hPa | 0 mm | - | 37 W/m² | - |
| 1777807168 | 5.56° C | 55% | 1016.1 hPa | 0 mm | - | 40 W/m² | - |
| 1777806866 | 5° C | 56% | 1016.3 hPa | 0 mm | - | 39 W/m² | - |
| 1777806563 | 5° C | 56% | 1016 hPa | 0 mm | - | 29 W/m² | - |
| 1777806258 | 5° C | 56% | 1016.1 hPa | 0 mm | - | 26 W/m² | - |
| 1777805955 | 5° C | 56% | 1016.4 hPa | 0 mm | - | 21 W/m² | - |
| 1777805652 | 5° C | 56% | 1016.1 hPa | 0 mm | - | 17 W/m² | - |
| 1777805350 | 5° C | 55% | 1016.2 hPa | 0 mm | - | 14 W/m² | - |
| 1777805048 | 5° C | 55% | 1016 hPa | 0 mm | - | 10 W/m² | - |
| 1777804745 | 5° C | 54% | 1016.1 hPa | 0 mm | - | 6 W/m² | - |
| 1777804443 | 5° C | 54% | 1016.2 hPa | 0 mm | - | 5 W/m² | - |
| 1777804140 | 4.44° C | 55% | 1016 hPa | 0 mm | - | 3 W/m² | - |
| 1777803836 | 4.44° C | 54% | 1016.1 hPa | 0 mm | - | 2 W/m² | - |
| 1777803532 | 4.44° C | 54% | 1016.2 hPa | 0 mm | - | 1 W/m² | - |
| 1777803230 | 4.44° C | 55% | 1016.3 hPa | 0 mm | - | 0 W/m² | - |
| 1777802927 | 3.89° C | 56% | 1016.2 hPa | 0 mm | - | 0 W/m² | - |
| 1777802624 | 3.89° C | 57% | 1016.3 hPa | 0 mm | - | 0 W/m² | - |
| 1777802322 | 3.89° C | 56% | 1016.5 hPa | 0 mm | - | 0 W/m² | - |
| 1777802020 | 3.33° C | 56% | 1016.6 hPa | 0 mm | - | 0 W/m² | - |
| 1777801717 | 3.33° C | 57% | 1016.4 hPa | 0 mm | - | 0 W/m² | - |
* Rain latest hour (hover to see other rain measurements)
** Current wind speed in m/s (hover to see current wind gust speed)